Location: Blue Pit
(43.1414°N, 93.2208°W)
Time: 23:54:32
(UTC+00:00)

Cosmos 2228 - Visible Passes

Search period start: 15 February 2026 00:00
Search period end: 25 February 2026 00:00
Orbit: 563 x 589 km, 82.5° (Epoch: 15 February)

Date Brightness Start Highest point End Pass type
(mag) Time Alt. Az. Time Alt. Az. Time Alt. Az.
15 Feb 3.9 00:27:04 10° NNE 00:30:35 25° ENE 00:34:05 10° SE visible
15 Feb 5.1 02:03:58 10° NNW 02:07:28 26° W 02:10:58 10° SW visible
16 Feb 3.6 00:30:37 10° N 00:34:26 33° ENE 00:38:16 10° SE visible
16 Feb 5.6 02:08:06 10° NW 02:11:10 20° W 02:14:14 10° SW visible
17 Feb 3.2 00:34:14 10° N 00:38:17 44° ENE 00:42:18 10° SSE visible
17 Feb 6.0 02:12:25 10° NW 02:14:50 15° W 02:17:16 10° WSW visible
18 Feb 2.9 00:37:55 10° N 00:42:05 60° E 00:46:15 10° SSE visible
18 Feb 6.4 02:17:11 10° WNW 02:18:29 11° W 02:19:47 10° WSW visible
19 Feb 2.9 00:41:39 10° N 00:45:53 82° E 00:50:06 10° S visible
20 Feb 3.2 00:45:26 10° NNW 00:49:39 74° W 00:53:51 10° S visible
21 Feb 3.8 00:49:16 10° NNW 00:53:23 53° W 00:57:30 10° S visible
22 Feb 4.5 00:53:10 10° NNW 00:57:07 39° W 01:01:03 10° SSW visible
23 Feb 5.2 00:57:08 10° NNW 01:00:49 29° W 01:04:29 10° SSW visible
23 Feb 6.7 11:48:27 10° E 11:49:32 11° E 11:50:35 10° ENE visible
24 Feb 5.7 01:01:11 10° NW 01:04:29 22° W 01:07:47 10° SW visible
24 Feb 6.3 11:50:51 10° ESE 11:53:08 15° E 11:55:27 10° NE visible
